User: anonymous
Location: NJAA Observatory
(40.6819°N, 74.8979°W)
Time: 05:26:25
(UTC-04:00)
Language:

Cosmos 1328 Rocket - Orbit

View from above orbital plane
View from above orbital plane
View from above satellite
View from above satellite

Ground track
Ground track

The orbit data is extracted from the following two-line orbital elements,

1 12988U 81117B   14210.96807333  .00000236  00000-0  25290-4 0  1077
2 12988 082.5273 340.9382 0019806 087.9514 051.1353 14.84077496763569
Epoch (UTC): 29 July 2014 23:14:01
Eccentricity: 0.0019806
inclination: 82.5273°
perigee height: 602 km
apogee height: 630 km
right ascension of ascending node: 340.9382°
argument of perigee: 87.9514°
revolutions per day: 14.84077496
mean anomaly at epoch: 51.1353°
orbit number at epoch: 76356

The dashed part of the orbit path shows where the satellite is in the earth's shadow,  

DLR